Location: Góry Miechowskie
(50.3599°N, 20.1803°E)
Time: 11:56:02
(UTC+00:00)

Meteor 1-11 - Pass Details

Date: 15 June 2024
Orbit: 841 x 884 km, 81.2° (Epoch: 16 July)

Event Time Altitude Azimuth Distance (km) Brightness Sun altitude
Exits shadow 00:15:34 18° 190° (S) 2,030 5.6 -13.3°
Maximum altitude 00:20:01 90° 131° (SE) 893 4.3 -13.1°
Drops below altitude 10° 00:25:52 10° 12° (NNE) 2,556 8.1 -12.7°
Sets 00:28:19 0° 13° (NNE) 3,497 9.2 -12.5°
